This is the latest recevied weather packets stored in our database for station/object KC3WWU. If no packets are shown the sender has not sent any weather packets the latest 10 day(s).
| Time | Temp. | Humidity | Pressure | Rain* | Wind** | Luminosity | Snow |
|---|---|---|---|---|---|---|---|
| 1777493471 | 12.78° C | 99% | 1003.6 hPa | 0 mm | - | 39 W/m² | - |
| 1777493168 | 12.78° C | 99% | 1004 hPa | 0 mm | - | 49 W/m² | - |
| 1777492864 | 12.78° C | 99% | 1003.8 hPa | 0 mm | - | 103 W/m² | - |
| 1777492561 | 12.78° C | 99% | 1003.7 hPa | 0 mm | - | 109 W/m² | - |
| 1777492256 | 12.78° C | 99% | 1003.7 hPa | 0 mm | - | 109 W/m² | - |
| 1777491954 | 12.78° C | 99% | 1004 hPa | 0 mm | - | 85 W/m² | - |
| 1777491649 | 12.22° C | 99% | 1004 hPa | 0 mm | - | 56 W/m² | - |
| 1777491348 | 12.78° C | 99% | 1004.3 hPa | 0 mm | - | 43 W/m² | - |
| 1777491045 | 12.22° C | 99% | 1004.2 hPa | 0 mm | - | 68 W/m² | - |
| 1777490740 | 12.22° C | 99% | 1004.3 hPa | 1.78 mm | - | 100 W/m² | - |
| 1777490437 | 12.22° C | 99% | 1004.7 hPa | 1.78 mm | - | 102 W/m² | - |
| 1777490133 | 12.22° C | 99% | 1004.9 hPa | 0 mm | - | 105 W/m² | - |
| 1777489831 | 12.78° C | 99% | 1005 hPa | 0 mm | - | 58 W/m² | - |
| 1777489528 | 12.78° C | 99% | 1005.3 hPa | 0 mm | - | 74 W/m² | - |
| 1777489225 | 12.78° C | 99% | 1005.3 hPa | 1.27 mm | - | 58 W/m² | - |
| 1777488922 | 12.78° C | 99% | 1005.4 hPa | 1.27 mm | - | 45 W/m² | - |
| 1777488619 | 12.78° C | 99% | 1005.2 hPa | 0 mm | - | 68 W/m² | - |
| 1777488316 | 12.78° C | 99% | 1005.5 hPa | 1.78 mm | - | 151 W/m² | - |
| 1777488015 | 12.78° C | 99% | 1005.4 hPa | 1.78 mm | - | 84 W/m² | - |
| 1777487712 | 12.78° C | 99% | 1005.6 hPa | 0 mm | - | 145 W/m² | - |
| 1777487410 | 12.78° C | 99% | 1005.6 hPa | 0 mm | - | 169 W/m² | - |
| 1777487107 | 12.78° C | 99% | 1005.7 hPa | 0 mm | - | 192 W/m² | - |
| 1777486802 | 12.78° C | 99% | 1005.6 hPa | 0 mm | - | 239 W/m² | - |
| 1777486500 | 12.22° C | 99% | 1006 hPa | 0 mm | - | 329 W/m² | - |
| 1777486197 | 12.22° C | 99% | 1006 hPa | 1.78 mm | - | 216 W/m² | - |
* Rain latest hour (hover to see other rain measurements)
** Current wind speed in m/s (hover to see current wind gust speed)